Loisir ou Compétition : Rejoignez un Club de la Fédération

Résultats

CSR PONTARLIER Course Régionale LE PRE PONCET 07/02/2016

PONTARLIER/ LA MALMAISON

FS Dames

Jury de Compétition

Délégué Technique :
LETOUBLON JULIEN (MJ)
D.T. Adjoint :
 
Dir. Epreuve :
TYRODE PATRICK (MJ)

Caractéristiques de la Piste

Piste :
LE PRE PONCET
Distance :
3.2 km
Point Haut :
 
Point Bas :
 
Montée Tot. :
 
Montée Max. :
 
Homologation :
 

Pénalité Appliquée :
 
Coefficient :
 

Catégorie :
U14
Style :
C

07/02/16 - FMJF0143

CltDosClt/CatCodeAnNom PrénomComClubTempsEcartPoints
12581/U14FFS26764522002PAGNIER CLOEMJCHAUX NEUVE14:09.900:00.0
22252/U14FNS4581922002WUTHRICH LOLASUISC LA VUE DES ALPES14:29.900:20.0
32473/U14FFS26811022003BLANC ANNAMJSC ABBAYE14:30.300:20.4
42564/U14FFS26711882002PELLEGRINI AUGUSTINEMJOYE-PALLET14:32.000:22.1
52605/U14FFS26770812002JEANNIER LEONIEMJAS VERRIERES14:32.800:22.9
62486/U14FFS26711892002DESCOURVIERES EMILIEMJOYE-PALLET14:46.700:36.8
72507/U14FFS26758052002BESANCON ALICEMJOLYMP MT DOR14:49.600:39.7
82548/U14FFS26711902002BILLET EMMAMJOYE-PALLET14:50.400:40.5
92559/U14FFS26755602002CHOUARD JULIETTEMJSC GRANDVAUX15:01.900:52.0
1024610/U14FFS26758042002HAUCK MELISSAMJOLYMP MT DOR15:08.400:58.5
1125711/U14FFS26766092002CAT LENAMJSC MONT NOIR15:12.901:03.0
1225112/U14FFS26766082002FORET JUSTINEMJSMBM/MORBIER15:13.201:03.3
1325913/U14FFS26681552002SAVOIE LISAMJHT JURA SKI15:17.701:07.8
1425314/U14FFS26695292002MOUGIN THEAMJPREMANON SC15:26.101:16.2
1524415/U14FFS26766112002COURVOISIER CELIAMJSC MONT NOIR15:39.701:29.8
1624316/U14FFS26773292002SALVI JEANNEMJA.S MOUTHE15:53.801:43.9
1724917/U14FFS26762252002GIRAUD CLARAMJPREMANON SC15:56.101:46.2
1822818/U14FFS26755822002GAUDET ADELIEMJOLYMP MT DOR15:57.901:48.0
1925219/U14FFS26711872002LAHEURTE PERRINEMJOYE-PALLET15:58.901:49.0
2023520/U14FFS26708482002SIMON ANTOINETTEMJSC FRASNE DR16:01.601:51.7
2124121/U14FFS26764422002BLONDEAU ANNAMJCHAUX NEUVE16:08.601:58.7
2223722/U14FFS26768112003BAVEREL LOANEMJES SAUGETTE16:11.302:01.4
2323623/U14FFS26558912002GUYON ANNAMJSKI ROUSSES16:23.302:13.4
2423324/U14FFS26657482002LAURENCE COLINEMJCSR PONTARLI16:26.102:16.2
2523925/U14FFS26761152003MAUGAIN FLAVIEMJES SAUGETTE16:27.402:17.5
2622426/U14FFS26711922002MONIER AMANDINEMJOYE-PALLET16:42.002:32.1
2722627/U14FFS26763392003NICOD MARIONMJSC FRASNE DR16:50.302:40.4
2823028/U14FFS26770852003PELLEGRINI LILLYMJOYE-PALLET17:02.502:52.6
2923429/U14FFS26839102003COURVOISIER LEAMJSC MONT NOIR17:08.202:58.3
3020930/U14FFS26711842002BESANCENET ZELIEMJOYE-PALLET17:17.503:07.6
3121431/U14FFS26764352003MOUGIN LUCIEMJES SAUGETTE17:20.903:11.0
3220732/U14FFS26811372003CORBEFIN CAMILLEMJBOIS D'AMONT17:29.103:19.2
3322933/U14FFS26713772002GAGELIN AGATHEMJES SAUGETTE17:29.603:19.7
3423834/U14FFS26675952002BUET CLEMENCEMJSMBM/MORBIER17:38.503:28.6
3522035/U14FFS26856772003GRAPPE HANNAMJSC GRANDVAUX17:39.403:29.5
3621236/U14FFS26764492003KOGLER EMELINEMJCSR PONTARLI17:40.803:30.9
3720037/U14FFS26763362003TREAND EMMAMJSC FRASNE DR17:45.903:36.0
3821138/U14FFS26826022003LEGENDRE TYFAINEMJA.S MOUTHE17:51.103:41.2
3924239/U14FFS26832592003ARDIET ELEONOREMJA.S MOUTHE17:53.403:43.5
4022240/U14FFS26712532003BOLE ISALINEMJCSR PONTARLI17:53.503:43.6
4120541/U14FFS26825422003LECOULTRE LARAMJOLYMP MT DOR17:56.903:47.0
4221942/U14FFS26706172002CRETENET LEAMJES SAUGETTE18:01.803:51.9
4322143/U14FFS26769842002DUSSAUSSOY EMMAMJVAL MORTEAU18:06.403:56.5
4421544/U14FFS26811722003SALVI LISAMJOYE-PALLET18:16.204:06.3
4520345/U14FFS26834742003DUINAT ROXANEMJSC GRANDVAUX18:19.704:09.8
4622346/U14FFS26712512003LEMAIRE LUCIEMJCSR PONTARLI18:21.604:11.7
4721747/U14FFS26568362002BELLONCLE SOLENEMJUS CHAUMERAN18:38.404:28.5
4819948/U14FFS26500152003MOREL FLAVIEMJSC LESFOURGS18:50.604:40.7
4919849/U14FNS4353482002PELLATON CORALINESUISC LA BREVINE19:00.804:50.9
5023250/U14FFS26785832002BOUVERET MARIONMJBOIS D'AMONT19:03.604:53.7
5121351/U14FFS26825092003PERRIN EVAMJAS VERRIERES19:07.104:57.2
5220252/U14FNS44749072003FAIVRE ISALINESUISC LA BREVINE19:24.205:14.3
5320853/U14FFS26856032003PREVALET STEPHANIEMJA.S MOUTHE19:28.505:18.6
5422754/U14FFS26643142002BARON FIONAMJVAL MORTEAU19:39.605:29.7
5521855/U14FFS26823832003AUGER EMMAMJAS VERRIERES19:44.305:34.4
5620656/U14FFS26811702003ROUSSEL JEANNEMJOYE-PALLET19:45.405:35.5
5720457/U14FFS26825112003FAIVRE MARGOTMJAS VERRIERES20:19.806:09.9
5821058/U14FFS26811742003THERY LENAMJOYE-PALLET21:41.007:31.1
5920159/U14FFS26832612003CLADEN SALOMEMJA.S MOUTHE22:51.808:41.9
6023160/U14FFS26825552002MARTIN EMMAMJUS CHAUMERAN22:53.408:43.5
Abandons
240FFS26806512002SERRETTE LISAMJSC GRANDVAUX
245FFS26811142003HUYGHE LOUMJSC ABBAYE

Informations sur le traitement de la course
6 Code Coureur non pris en compte ! FNS435348
6 Code Coureur non pris en compte ! FNS4474907
6 Code Coureur non pris en compte ! FNS458192